Content
SEND FEEDBACK

Daily
Averages
Monthly
Summary
Australia

BACCHUS MARSH, VICTORIA


Home > Oceania > Australia > Victoria
Elevation: 104 meters     Latitude: 37 42S     Longitude: 144 24E

WEATHER
 
SELECT A DAY
Number of Records: 231,685;   Date Range: 11/10/99 - 9/21/14
 
SHARE

PRINT THIS DATA

[ ← Previous Day ]
WEATHER ALMANAC - 13 FEBRUARY, 2013
[ Next Day → ]
[ °F ]   °C
Weather ElementAverageHighLow
Temperature21.7 °C28 °C (3:00 pm)16 °C (2:30 am)
Dewpoint14.2 °C16 °C (6:30 pm)12 °C (12:00 am)
Humidity62.8 %82 % (4:00 am)33 % (3:00 pm)
Barometer1018.6 hPa1021 hPa (9:00 am)1015.2 hPa (6:00 pm)
Wind Speed18.7 km/h31.5 km/h (6:00 pm)
Weather ElementAverage
Visibility10 km
Wind DirectionSSE (142.7 °)

Weather ElementTotal
Precipitation---
Cooling Degree Days3.7 (Base 18.3)
Growing Degree Days12 (Base 10)
Averaged from 55 records on 13 February, 2013
WEATHER CONDITIONS BREAKOUT
WIND DIRECTION BREAKOUT
WEATHER BY HOUR - 13 FEBRUARY, 2013
[ °F ]   °C
Local TimeTemperatureDewpointHumidityBarometerVisibilityWind DirectionWind SpeedGust SpeedPrecipitationEventsConditions
12:00 AM19 °C12 °C64 %1020 hPa10 kmESE (120°)24.1 km/h
12:30 AM18 °C13 °C73 %1020 hPa10 kmESE (120°)25.9 km/h
1:00 AM18 °C13 °C73 %1020 hPa10 kmSE (130°)24.1 km/h
1:30 AM17 °C12 °C72 %1020 hPa10 kmSE (140°)20.4 km/h
2:00 AM17 °C13 °C77 %1020 hPa10 kmSSE (150°)18.5 km/h
2:30 AM16 °C12 °C77 %1019 hPa10 kmSSE (150°)14.8 km/h
3:00 AM16 °C12 °C77 %1019 hPa10 kmSouth (170°)14.8 km/h
3:00 AM16.1 °C12.2 °C72 %1020 hPaSouth (170°)14.8 km/h
3:30 AM16 °C12 °C77 %1019 hPa10 kmSouth (170°)14.8 km/h
4:00 AM16 °C13 °C82 %1019 hPa10 kmSSE (160°)14.8 km/h
4:30 AM16 °C13 °C82 %1019 hPa10 kmSSE (160°)14.8 km/hScattered Clouds
5:00 AM16 °C13 °C82 %1019 hPa10 kmSouth (170°)14.8 km/hMostly Cloudy
5:30 AM16 °C13 °C82 %1019 hPa10 kmESE (120°)11.1 km/hOvercast
6:00 AM17 °C14 °C82 %1019 hPa10 kmESE (110°)16.7 km/hMostly Cloudy
6:00 AM17.2 °C13.9 °C74 %1019.6 hPaESE (110°)16.7 km/h
6:30 AM17 °C14 °C82 %1019 hPa10 kmESE (110°)16.7 km/hMostly Cloudy
7:00 AM17 °C14 °C82 %1020 hPa10 kmSE (130°)14.8 km/hMostly Cloudy
7:30 AM18 °C14 °C77 %1020 hPa10 kmSE (130°)14.8 km/hScattered Clouds
8:00 AM19 °C15 °C78 %1020 hPa10 kmESE (110°)14.8 km/h
8:30 AM19 °C14 °C73 %1020 hPa10 kmESE (120°)16.7 km/hScattered Clouds
9:00 AM20 °C15 °C73 %1020 hPa10 kmSE (130°)14.8 km/h
9:00 AM19.4 °C14.4 °C67 %1021 hPaSE (130°)14.8 km/h
9:30 AM20 °C15 °C73 %1020 hPa10 kmESE (110°)14.8 km/h
10:00 AM21 °C15 °C68 %1020 hPa10 kmESE (110°)13 km/h
10:30 AM21 °C15 °C68 %1020 hPa10 kmESE (110°)16.7 km/h
11:00 AM22 °C15 °C64 %1020 hPa10 kmESE (120°)20.4 km/h
11:30 AM22 °C14 °C60 %1020 hPa10 kmESE (120°)18.5 km/h
12:00 PM23 °C14 °C57 %1020 hPa10 kmESE (110°)16.7 km/h
12:00 PM22.2 °C13.9 °C50 %1020.7 hPaESE (110°)16.7 km/h
12:30 PM23 °C14 °C57 %1019 hPa10 kmSE (130°)16.7 km/h
1:00 PM24 °C14 °C53 %1019 hPa10 kmESE (120°)20.4 km/h
1:30 PM25 °C15 °C54 %1019 hPa10 kmESE (110°)20.4 km/h
2:00 PM26 °C14 °C47 %1017.9 hPa10 kmESE (110°)20.4 km/hScattered Clouds
2:30 PM27 °C15 °C48 %1017.9 hPa10 kmSE (130°)16.7 km/h
3:00 PM28 °C14 °C42 %1017.9 hPa10 kmESE (120°)22.2 km/h
3:00 PM27.8 °C14.4 °C33 %1017.9 hPaESE (120°)22.2 km/h
3:30 PM28 °C14 °C42 %1017.3 hPa10 kmSE (130°)20.4 km/h
4:00 PM28 °C15 °C45 %1017.3 hPa10 kmSouth (180°)22.2 km/h
4:30 PM28 °C15 °C45 %1016.3 hPa10 kmSSW (200°)29.6 km/h
5:00 PM28 °C15 °C45 %1016.3 hPa10 kmSouth (190°)29.6 km/h
5:30 PM28 °C14 °C42 %1016.3 hPa10 kmSSW (200°)29.6 km/h
6:00 PM28 °C14 °C42 %1015.2 hPa10 kmSouth (190°)31.5 km/h
6:00 PM27.8 °C14.4 °C33 %1015.9 hPaSouth (190°)31.5 km/h
6:30 PM27 °C16 °C51 %1015.2 hPa10 kmSouth (190°)27.8 km/h
7:00 PM27 °C15 °C48 %1015.2 hPa10 kmSouth (180°)22.2 km/hScattered Clouds
7:30 PM27 °C15 °C48 %1016.3 hPa10 kmSouth (180°)18.5 km/hScattered Clouds
8:00 PM25 °C16 °C57 %1016.3 hPa10 kmSouth (190°)16.7 km/hScattered Clouds
8:30 PM24 °C16 °C61 %1016.3 hPa10 kmSouth (180°)13 km/hScattered Clouds
9:00 PM22 °C16 °C69 %1017.3 hPa10 kmSouth (180°)11.1 km/h
9:00 PM22.2 °C15.6 °C58 %1017.6 hPaSouth (180°)11.1 km/h
9:30 PM22 °C15 °C64 %1017.3 hPa10 kmESE (120°)13 km/h
10:00 PM23 °C15 °C61 %1017.9 hPa10 kmESE (120°)20.4 km/hScattered Clouds
10:30 PM22 °C15 °C64 %1017.9 hPa10 kmSE (130°)20.4 km/hMostly Cloudy
11:00 PM22 °C15 °C64 %1017.9 hPa10 kmSE (130°)16.7 km/hScattered Clouds
11:30 PM21 °C14 °C64 %1017.9 hPa10 kmSSE (150°)13 km/h
Hourly data recorded from YMAV, located 0 kilometers away from Bacchus Marsh, Victoria







STORIES FROM OUR PARTNERS